Погода в Михайловке

Погода в Михайловке : погода сейчас, прогноз погоды и архив. Всё, что Вы хотите узнать о погоде в Михайловке!

Поиск расширенной информации на нашем сайте:

Другие новости

Новости СМИ2

Главная страница сайта

Новости сайта

02.10.2013

Напоминаем, что на нашем новом сайте вы можете получить высокодетализированные прогнозы погоды по пунктам России, СНГ и мира (включающие важные для авиации метеовеличины, такие как направление и скорость ветра, видимость, явления погоды, количество и форма облачности, нижняя и верхняя граница облачности), а также ознакомиться с разнообразными материалами по авиационной метеорологии и подборкой полезных ссылок на эту тему.

Сайт Метеоцентр.Азия посвящён разработке технологий оптимизации авиаметеорологического обслуживания, включая проектирование и перспективное создание нескольких автоматизированных авиаметеорологических систем:
- система выпуска высокодетальных прогностических карт явлений погоды для нижнего воздушного пространства по России и ближнему зарубежью;
- система верификации прогнозов TAF (выпускаемых синоптиками официальных АМСГ РФ и ближнего зарубежья) и AUTOTAF (выпускаемых сайтом Метеоцентр.Азия) - выявление ошибок, онлайн-сопоставление с фактической погодой METAR, автоматическое внесение коррективов в прогнозы при резком отклонении фактической погоды от прогноза, подсчёт оправдываемости прогнозов по элементам и в целом;
- система обработки, анализа и отображения авиаметеорологической информации для применения провайдерами метеорологической информации.

Рекомендуем: Детальное описание вызов терапевта на дом тут.

Погода в Михайловке - сегодня

Время (UTC), дата Ветер
(°,м/с) 
Видим.   Явления Облачность Т
(°С)
Тd
(°С)
f(%) Тe
(°С)
Pmin
(гПа)
dP
(гПа)
Po
(мм)
O2
(г/м3)
Тmin Tmax R s Состояние
почвы
15 25.02.17 210 (ЮЗ) н/о    10/10 600 м 
[Sc]
-6.7 -7.6 93 -9  1021.2  0.7  755  313    -6.5       
18 25.02.17 210 (ЮЗ) н/о    10/10 600 м 
[Sc]
-6.4 -7.3 93 -9  1021.5  0.3  755  312    -6.5       
21 25.02.17 200 (Ю) н/о    10/10 600 м 
[Sc]
-5.5 -6 96 -8  1023.1  1.6  756  312           
00 26.02.17 190 (Ю) н/о    10/10 600 м 
[Sc]
-4.4 -4.9 96 -7  1023.6  0.6  757  310           
03 26.02.17 190 (Ю) 4000 м  дымка  10/10 600 м 
[Sc]
-3 -3.8 94 -7  1024.6  757  309        15  равномерный
сухой снег
100% 
06 26.02.17 200 (Ю) 10 км    10/10 600 м 
[Sc]
-1.8 -3.4 89 -6  1025.1  0.6  758  308  -8.6         
09 26.02.17 180 (Ю) 10 км    10/0 верхняя 
[Ci sp]
-0.5 -3 83 -4  1024.5  -0.5  758  306           
12 26.02.17 180 (Ю) 10 км    10/10 600 м 
[Sc]
-0.1 -2.2 86 -4  1024  -0.5  757  305           
15 26.02.17 200 (Ю) н/о  слаб. снег  10/10 300 м 
[Ns]
-0.2 -0.5 98 -4  1023.6  -0.4  757  305    +0.1  0.9     
18 26.02.17 210 (ЮЗ) н/о  слаб. дождь{снег}  10/10 300 м 
[Ns]
+0.5 +0.1 97 -3  1023.9  0.3  757  304    +0.1  0.9     
21 26.02.17 210 (ЮЗ) н/о  в посл. час дождь  10/10 300 м 
[Frnb]
+0.7 -0.4 92 -2  1024.7  0.8  758  305           
00 27.02.17 200 (Ю) н/о  {дождь}  10/10 300 м 
[Frnb]
-0.1 -2 87 -3  1024.9  0.2  758  306           
03 27.02.17 180 (Ю) 10 км    10/0 средняя, верхняя 
[Ac trans|Ci fib]
-1.9 -3.5 89 -5  1025.4  0.4  758  308      15  равномерный
сухой снег
100% 
06 27.02.17 180 (Ю) 10 км    10/0 средняя, верхняя 
[Ac trans|Ci fib]
-1.8 -5.3 77 -6  1024.8  -0.6  758  308  -1.9       
09 27.02.17 160 (Ю) 10 км    10/0 средняя 
[As trans]
+0.2 -4.1 73 -4  1022.9  -1.8  756  305           
12 27.02.17 180 (Ю) 10 км    10/0 средняя, верхняя 
[Ac trans|Ci fib]
-0.6 -4.3 76 -5  1023.1  0.2  756  306           
15 27.02.17 210 (ЮЗ) н/о    10/0 средняя 
[Ac trans]
+0.4 -2.5 81 -3  1023.8  0.7  757  305    +0.9       
18 27.02.17 250 (З) н/о    10/0 средняя, верхняя 
[Ac trans|Ci fib]
-1.2 -3.9 82 -4  1026  2.1  759  307    +0.9       
21 27.02.17 220 (ЮЗ) н/о    ясно 
-4.3 -7.7 77 -6  1028.4  2.2  760  312           
00 28.02.17 180 (Ю) н/о    ясно 
-6.8 -9.4 82 -8  1029.6  761  315           
03 28.02.17 200 (Ю) 10 км    8/0 средняя, верхняя 
[Ac trans|Ci fib]
-7.7 -9.9 84 -10  1030.3  0.7  761  317        14  равномерный
сухой снег
100% 
06 28.02.17 180 (Ю) 10 км    10/0 верхняя 
[Ci sp]
-3.9 -7 79 -6  1030.4  0.3  762  312  -8.5         
09 28.02.17 180 (Ю) 10 км    10/0 верхняя 
[Ci sp]
-1.9 -4.6 82 -4  1029.2  -1.1  761  309           
12 28.02.17 180 (Ю) 10 км    10/10 600 м 
[Sc]
-3.3 -5 88 -4  1028.4  -0.8  760  311           
15 28.02.17 тихо ()   н/о    10/10 600 м 
[Sc]
-4.7 -5.8 92 -5  1027.4  -1.1  759  312    -1.6       
Время (UTC), дата Ветер
(°,м/с) 
Видим.   Явления Облачность Т
(°С)
Тd
(°С)
f(%) Тe
(°С)
Pmin
(гПа)
dP
(гПа)
Po
(мм)
O2
(г/м3)
Тmin Tmax R s Состояние
почвы

Для получения пояснительной информации подведите курсор к названию столбца.

ПОГОДА в Михайловке - архив

Всё, что Вы хотите узнать о погоде в Михайловке - удобно и подробно!

Выберите нужную дату (начиная с 1 января 2015* года) и нажмите кнопку "Найти".
Будут отображены архивные сводки погоды по пункту Михайловка, начиная с указанной даты.


Отображать данные в формате CSV (для использования в таблицах Excel)


Внимание! Наш архив погоды предназначен исключительно для личного некоммерческого использования в познавательных целях. Если Вам необходимы официальные справки о состоянии погоды (для производственных, юридических, коммерческих и т.п. целей), обращайтесь в органы Росгидромета.

*Примечание: данная дата относится к архиву по метеостанциям СССР (Россия, СНГ, Балтия).
Архив по метеостанциям Зарубежной Европы и Азии (кроме Китая) хранится 10 дней, по другим регионам земного шара (Китай, Африка, Америка, Австралия, Океания) - 1 день.

Михайловка - район местоположения метеостанции


Название, широта, долгота, высота метеостанции:
Михайловка 53.8°ш. 76.5°д. 114 м над ур. моря [Казахстан]

Дополнительная информация

В oтличие oт бoльшинства пoгoдных сайтoв мы публикуем пoдрoбную метеoинфoрмацию в детальнoм прoфессиoнальнoм фoрмате.

Характеристики температуры и влажнoсти вoздуха измеряются на высoте 2 м в тени вдали oт зданий и деревьев.
Скoрoсть ветра измеряется на высoте 10 м (на урoвне рoста челoвека скoрoсть ветра ниже в 1.5-2 раза). Если метеoстанция нахoдится в гoрoде или в лесу, тo скoрoсть ветра занижена на 2-4 м/с пo сравнению с oткрытым местoм. Скoрoсть ветра над акватoриями крупных рек и oзёр, а также на вершинах хoлмoв на 2-5 м/с выше, чем в oбычных услoвиях.
Атмoсфернoе давление в разных тoчках местнoсти мoжет значительнo oтличаться oт давления на метеoстанции, в зависимoсти oт услoвий рельефа (при пoдъёме на 10 м давление пoнижается примернo на 1 мм рт.ст.).